Regional Weather Roundup
Issued by NWS Cleveland, OH

Home | Current Version | Previous Version | Graphics & Text | Print | Product List | Glossary On
Versions: 1 2 3 4 5 6 7 8 9 10 11 12 13 14 15 16 17 18 19 20 21 22 23 24 25 26 27 28 29 30 31 32 33 34 35 36 37 38 39 40 41 42 43 44 45 46 47 48 49 50
000
ASUS41 KCLE 221810
RWRCLE
OHIO REGIONAL WEATHER ROUNDUP
NATIONAL WEATHER SERVICE CLEVELAND, OH
200 PM EDT TUE APR 22 2014

NOTE: "FAIR" INDICATES FEW OR NO CLOUDS BELOW 12,000 FEET WITH NO
SIGNIFICANT WEATHER AND/OR OBSTRUCTIONS TO VISIBILITY.

OHZ001>008-015>018-024>027-034-035-043-044-221900-
   NORTHWEST OHIO

CITY           SKY/WX    TMP DP  RH WIND       PRES   REMARKS
DEFIANCE       SUNNY     59  35  40 NW21G28   29.83S
FINDLAY        SUNNY     61  37  41 NW21      29.78S
TOLEDO EXPRESS SUNNY     59  34  39 W14       29.78S
TOLEDO EXEC    SUNNY     60  34  37 W22G28    29.78F
LIMA           SUNNY     61  38  42 NW18G28   29.81S
$$

OHZ009>014-019>023-028>033-038-089-221900-
   NORTHEAST OHIO

CITY           SKY/WX    TMP DP  RH WIND       PRES   REMARKS
CLE-HOPKINS    CLOUDY    48  45  89 N6        29.78R FOG
CLE-LAKEFRONT  CLOUDY    44  44 100 NW5       29.74S FOG
CUY CO. ARPT   DRZL/FOG  45  45 100 N9        29.75R VSB 3/4
LORAIN-ELYRIA  MOSUNNY   57  40  52 NW20G28   29.76S
ASHTABULA      CLOUDY    44  37  76 NW12      29.74R
AKRON-CANTON   CLOUDY    59  51  75 NW21      29.71R
WOOSTER        MOSUNNY   59  50  72 NW22      29.72S
MANSFIELD      SUNNY     63  42  46 W9G21     29.73S
YOUNGSTOWN     CLOUDY    49  47  93 NW14      29.69S FOG
$$

OHZ042-051>053-060>062-070>072-077>081-221900-
  SOUTHWEST OHIO

CITY           SKY/WX    TMP DP  RH WIND       PRES   REMARKS
CINC-COVINGTON NOT AVBL
CINC-LUNKEN    MOSUNNY   68  42  38 NW17G30   29.83S
HAMILTON       SUNNY     67  43  41 NW18G25   29.84S
DAYTON         MOSUNNY   64  44  48 NW18G28   29.83S
WRIGHT-PAT AFB SUNNY     64  42  45 W15G24    29.81F
DAYTON GENERAL SUNNY     65  43  44 NW18G28   29.82S
WILMINGTON     SUNNY     66  44  45 W23G31    29.80R
$$

OHZ036-037-039>041-045>050-054>059-063>069-073>076-082>088-221900-
  CENTRAL AND SOUTHEAST OHIO

CITY           SKY/WX    TMP DP  RH WIND       PRES   REMARKS
COLUMBUS       MOSUNNY   68  46  45 NW20G25   29.75S
OSU AIRPORT    MOSUNNY   65  47  52 NW17G26   29.77S
BOLTON FIELD   SUNNY     64  48  55 NW18G25   29.78R
RICKENBACK AFB SUNNY     70  42  37 NW21G28   29.76R
NEWARK         MOSUNNY   69  43  38 NW21G29   29.72F
MARION         MOSUNNY   62  43  49 W14G28    29.76S
LANCASTER      MOSUNNY   70  42  36 NW20G31   29.74F
ZANESVILLE     MOSUNNY   72  49  44 W16G30    29.70F
NEW PHILLY     MOSUNNY   69  49  48 NW13G28   29.68F
$$



USA.gov is the U.S. government's official web portal to all federal, state and local government web resources and services.